"read_dt","SO2 (ppb)","flags","PMT voltage (V)","lamp voltage (V)","lamp intensity (Hz)","internal temp (C)","react chamber temp (C)","sample flow (l/min)","pres (mmHg)","SO2 bkg (ppb)","SO2 coefficient"
2014-08-02 00:00:00,1906E-3,5C000000,-0724,0830,12081,032.1,045.6,0.472,735.6,01.18,0.508
2014-08-02 00:01:00,1919E-3,5C000000,-0724,0828,12190,032.1,045.6,0.472,735.7,01.18,0.508
2014-08-02 00:02:00,1801E-3,5C000000,-0724,0829,12120,032.1,045.6,0.472,735.6,01.18,0.508
2014-08-02 00:03:00,1863E-3,5C000000,-0724,0829,12196,032.1,045.6,0.472,735.7,01.18,0.508
2014-08-02 00:04:00,1811E-3,5C000000,-0724,0829,12234,032.1,045.6,0.472,735.7,01.18,0.508
2014-08-02 00:05:00,1839E-3,5C000000,-0724,0829,12304,032.1,045.6,0.472,735.7,01.18,0.508
2014-08-02 00:06:00,1755E-3,5C000000,-0724,0829,12315,032.1,045.6,0.472,735.7,01.18,0.508
2014-08-02 00:07:00,1784E-3,5C000000,-0724,0830,12176,032.1,045.7,0.471,735.7,01.18,0.508
2014-08-02 00:08:00,1917E-3,5C000000,-0724,0829,12189,032.1,045.6,0.471,735.7,01.18,0.508
2014-08-02 00:09:00,1787E-3,5C000000,-0724,0830,12138,032.1,045.6,0.471,735.7,01.18,0.508
2014-08-02 00:10:00,1804E-3,5C000000,-0724,0829,12239,032.1,045.7,0.471,735.7,01.18,0.508
2014-08-02 00:11:00,1789E-3,5C000000,-0724,0830,12094,032.1,045.6,0.471,735.7,01.18,0.508
2014-08-02 00:12:00,1730E-3,5C000000,-0724,0830,12231,032.1,045.6,0.471,735.7,01.18,0.508
2014-08-02 00:13:00,1890E-3,5C000000,-0724,0829,12209,032.1,045.6,0.472,735.7,01.18,0.508
2014-08-02 00:14:00,1862E-3,5C000000,-0724,0830,12079,032.1,045.6,0.472,735.7,01.18,0.508
2014-08-02 00:15:00,1768E-3,5C000000,-0724,0829,12235,032.1,045.6,0.472,735.7,01.18,0.508
2014-08-02 00:16:00,1759E-3,5C000000,-0724,0829,12077,032.1,045.6,0.472,735.7,01.18,0.508
2014-08-02 00:17:00,1770E-3,5C000000,-0724,0829,12083,032.1,045.6,0.472,735.7,01.18,0.508
2014-08-02 00:18:00,1808E-3,5C000000,-0724,0828,12306,032.1,045.6,0.472,735.7,01.18,0.508
2014-08-02 00:19:00,1883E-3,5C000000,-0724,0829,12304,032.1,045.6,0.471,735.7,01.18,0.508
2014-08-02 00:20:00,1798E-3,5C000000,-0724,0829,12253,032.1,045.6,0.471,735.7,01.18,0.508
2014-08-02 00:21:00,1848E-3,5C000000,-0724,0830,12220,032.1,045.6,0.471,735.7,01.18,0.508
2014-08-02 00:22:00,1998E-3,5C000000,-0724,0829,12238,032.1,045.6,0.471,735.7,01.18,0.508
2014-08-02 00:23:00,1807E-3,5C000000,-0724,0831,11886,032.1,045.6,0.471,735.7,01.18,0.508
2014-08-02 00:24:00,1705E-3,5C000000,-0724,0830,12190,032.1,045.6,0.471,735.7,01.18,0.508
2014-08-02 00:25:00,1884E-3,5C000000,-0724,0830,12222,032.1,045.6,0.471,735.7,01.18,0.508
2014-08-02 00:26:00,1866E-3,5C000000,-0724,0830,12278,032.1,045.6,0.471,735.7,01.18,0.508
2014-08-02 00:27:00,1873E-3,5C000000,-0724,0829,12203,032.1,045.6,0.472,735.7,01.18,0.508
2014-08-02 00:28:00,1944E-3,5C000000,-0724,0831,11991,032.1,045.6,0.472,735.7,01.18,0.508
2014-08-02 00:29:00,1964E-3,5C000000,-0724,0830,12118,032.0,045.6,0.472,735.6,01.18,0.508
2014-08-02 00:30:00,1942E-3,5C000000,-0724,0829,12398,032.1,045.6,0.472,735.6,01.18,0.508
2014-08-02 00:31:00,1901E-3,5C000000,-0724,0829,12189,032.1,045.6,0.472,735.6,01.18,0.508
2014-08-02 00:32:00,1879E-3,5C000000,-0724,0830,12109,032.1,045.6,0.472,735.6,01.18,0.508
2014-08-02 00:33:00,1989E-3,5C000000,-0724,0830,12224,032.1,045.6,0.472,735.6,01.18,0.508
2014-08-02 00:34:00,1850E-3,5C000000,-0724,0830,12208,032.1,045.6,0.472,735.6,01.18,0.508
2014-08-02 00:35:00,1808E-3,5C000000,-0724,0830,12179,032.0,045.6,0.472,735.6,01.18,0.508
2014-08-02 00:36:00,1873E-3,5C000000,-0724,0830,12347,032.0,045.6,0.472,735.6,01.18,0.508
2014-08-02 00:37:00,1848E-3,5C000000,-0724,0829,12308,032.1,045.6,0.472,735.6,01.18,0.508
2014-08-02 00:38:00,1928E-3,5C000000,-0724,0829,12201,032.0,045.6,0.472,735.6,01.18,0.508
2014-08-02 00:39:00,1870E-3,5C000000,-0724,0829,12189,032.0,045.6,0.472,735.6,01.18,0.508
2014-08-02 00:40:00,1866E-3,5C000000,-0724,0829,12341,032.0,045.6,0.472,735.6,01.18,0.508
2014-08-02 00:41:00,1833E-3,5C000000,-0724,0830,12241,032.0,045.6,0.472,735.6,01.18,0.508
2014-08-02 00:42:00,1804E-3,5C000000,-0724,0829,12055,032.0,045.6,0.472,735.6,01.18,0.508
2014-08-02 00:43:00,1897E-3,5C000000,-0724,0828,12269,032.0,045.6,0.472,735.6,01.18,0.508
2014-08-02 00:44:00,1881E-3,5C000000,-0724,0829,12315,032.0,045.7,0.472,735.6,01.18,0.508
2014-08-02 00:45:00,1862E-3,5C000000,-0724,0830,12178,032.0,045.6,0.472,735.6,01.18,0.508
2014-08-02 00:46:00,1997E-3,5C000000,-0724,0829,12217,032.0,045.6,0.472,735.5,01.18,0.508
2014-08-02 00:47:00,1838E-3,5C000000,-0724,0831,12352,032.0,045.6,0.472,735.5,01.18,0.508
2014-08-02 00:48:00,1728E-3,5C000000,-0724,0829,12157,032.0,045.6,0.472,735.5,01.18,0.508
2014-08-02 00:49:00,1872E-3,5C000000,-0724,0830,12201,032.0,045.6,0.472,735.5,01.18,0.508
2014-08-02 00:50:00,1980E-3,5C000000,-0724,0829,12196,032.0,045.6,0.472,735.5,01.18,0.508
2014-08-02 00:51:00,1902E-3,5C000000,-0724,0830,12205,032.0,045.6,0.472,735.5,01.18,0.508
2014-08-02 00:52:00,1831E-3,5C000000,-0724,0830,12111,032.0,045.6,0.472,735.5,01.18,0.508
2014-08-02 00:53:00,1820E-3,5C000000,-0724,0830,12092,032.0,045.6,0.472,735.5,01.18,0.508
2014-08-02 00:54:00,1783E-3,5C000000,-0724,0829,12127,032.0,045.6,0.472,735.5,01.18,0.508
2014-08-02 00:55:00,1850E-3,5C000000,-0724,0829,12125,032.0,045.6,0.472,735.5,01.18,0.508
2014-08-02 00:56:00,1924E-3,5C000000,-0724,0830,12181,032.0,045.6,0.472,735.5,01.18,0.508
2014-08-02 00:57:00,1879E-3,5C000000,-0724,0830,12114,032.0,045.6,0.472,735.5,01.18,0.508
2014-08-02 00:58:00,1916E-3,5C000000,-0724,0828,12118,032.0,045.6,0.471,735.5,01.18,0.508
2014-08-02 00:59:00,1834E-3,5C000000,-0724,0830,12031,032.0,045.6,0.471,735.5,01.18,0.508
2014-08-02 01:00:00,1839E-3,5C000000,-0724,0829,12255,032.0,045.6,0.472,735.5,01.18,0.508
2014-08-02 01:01:00,1990E-3,5C000000,-0724,0830,12278,032.0,045.6,0.471,735.4,01.18,0.508
2014-08-02 01:02:00,1868E-3,5C000000,-0724,0831,12271,032.0,045.6,0.472,735.4,01.18,0.508
2014-08-02 01:03:00,1883E-3,5C000000,-0724,0830,12296,032.0,045.7,0.471,735.4,01.18,0.508
2014-08-02 01:04:00,1912E-3,5C000000,-0724,0829,12173,032.0,045.6,0.472,735.4,01.18,0.508
2014-08-02 01:05:00,1878E-3,5C000000,-0724,0830,12313,032.0,045.6,0.471,735.4,01.18,0.508
2014-08-02 01:06:00,1838E-3,5C000000,-0724,0831,12225,032.0,045.6,0.471,735.4,01.18,0.508
2014-08-02 01:07:00,1975E-3,5C000000,-0724,0830,12036,032.0,045.6,0.471,735.4,01.18,0.508
2014-08-02 01:08:00,1837E-3,5C000000,-0724,0829,12236,032.0,045.6,0.471,735.4,01.18,0.508
2014-08-02 01:09:00,1865E-3,5C000000,-0724,0830,12222,031.9,045.6,0.472,735.3,01.18,0.508
2014-08-02 01:10:00,1870E-3,5C000000,-0724,0830,12312,032.0,045.6,0.472,735.3,01.18,0.508
2014-08-02 01:11:00,1931E-3,5C000000,-0724,0829,12187,031.9,045.6,0.472,735.3,01.18,0.508
2014-08-02 01:12:00,1990E-3,5C000000,-0724,0830,12074,032.0,045.6,0.472,735.3,01.18,0.508
2014-08-02 01:13:00,1873E-3,5C000000,-0724,0829,12148,032.0,045.6,0.472,735.3,01.18,0.508
2014-08-02 01:14:00,1880E-3,5C000000,-0724,0830,12173,031.9,045.6,0.472,735.3,01.18,0.508
2014-08-02 01:15:00,1813E-3,5C000000,-0724,0829,12258,031.9,045.6,0.472,735.3,01.18,0.508
2014-08-02 01:16:00,1906E-3,5C000000,-0724,0829,12225,031.9,045.6,0.472,735.3,01.18,0.508
2014-08-02 01:17:00,1764E-3,5C000000,-0724,0829,12189,031.9,045.6,0.472,735.3,01.18,0.508
2014-08-02 01:18:00,1891E-3,5C000000,-0724,0831,12152,031.9,045.6,0.472,735.3,01.18,0.508
2014-08-02 01:19:00,1858E-3,5C000000,-0724,0830,12256,032.0,045.6,0.472,735.3,01.18,0.508
2014-08-02 01:20:00,1923E-3,5C000000,-0724,0829,12241,031.9,045.6,0.472,735.3,01.18,0.508
2014-08-02 01:21:00,1859E-3,5C000000,-0724,0830,12018,031.9,045.6,0.472,735.3,01.18,0.508
2014-08-02 01:22:00,1908E-3,5C000000,-0724,0829,11971,031.9,045.6,0.472,735.3,01.18,0.508
2014-08-02 01:23:00,1793E-3,5C000000,-0724,0831,12189,031.9,045.6,0.472,735.3,01.18,0.508
2014-08-02 01:24:00,1904E-3,5C000000,-0724,0829,11966,031.9,045.6,0.472,735.3,01.18,0.508
2014-08-02 01:25:00,1923E-3,5C000000,-0724,0830,12136,031.9,045.6,0.472,735.3,01.18,0.508
2014-08-02 01:26:00,1926E-3,5C000000,-0724,0831,12283,031.9,045.6,0.472,735.3,01.18,0.508
2014-08-02 01:27:00,1955E-3,5C000000,-0724,0829,12307,031.9,045.6,0.472,735.3,01.18,0.508
2014-08-02 01:28:00,1825E-3,5C000000,-0724,0829,12197,031.9,045.6,0.472,735.3,01.18,0.508
2014-08-02 01:29:00,1885E-3,5C000000,-0724,0829,12287,031.9,045.6,0.472,735.3,01.18,0.508
2014-08-02 01:30:00,1972E-3,5C000000,-0724,0829,12376,031.9,045.6,0.472,735.2,01.18,0.508
2014-08-02 01:31:00,1841E-3,5C000000,-0724,0830,12145,031.9,045.6,0.472,735.2,01.18,0.508
2014-08-02 01:32:00,1982E-3,5C000000,-0724,0830,12335,031.9,045.6,0.472,735.2,01.18,0.508
2014-08-02 01:33:00,1824E-3,5C000000,-0724,0830,12226,031.9,045.6,0.472,735.2,01.18,0.508
2014-08-02 01:34:00,1740E-3,5C000000,-0724,0829,12129,031.9,045.6,0.472,735.2,01.18,0.508
2014-08-02 01:35:00,1916E-3,5C000000,-0724,0830,12057,031.9,045.6,0.472,735.2,01.18,0.508
2014-08-02 01:36:00,1873E-3,5C000000,-0724,0829,12150,031.9,045.6,0.472,735.2,01.18,0.508
2014-08-02 01:37:00,1870E-3,5C000000,-0724,0830,11987,031.9,045.6,0.472,735.2,01.18,0.508
2014-08-02 01:38:00,1833E-3,5C000000,-0724,0829,12359,031.9,045.6,0.472,735.3,01.18,0.508
2014-08-02 01:39:00,1749E-3,5C000000,-0724,0830,12192,031.9,045.6,0.472,735.2,01.18,0.508
2014-08-02 01:40:00,1877E-3,5C000000,-0724,0829,12188,031.9,045.6,0.471,735.2,01.18,0.508
2014-08-02 01:41:00,1888E-3,5C000000,-0724,0829,12307,031.9,045.6,0.471,735.2,01.18,0.508
2014-08-02 01:42:00,1842E-3,5C000000,-0724,0830,12143,031.9,045.6,0.471,735.2,01.18,0.508
2014-08-02 01:43:00,1941E-3,5C000000,-0724,0829,11963,031.9,045.6,0.471,735.2,01.18,0.508
2014-08-02 01:44:00,1872E-3,5C000000,-0724,0829,12279,031.9,045.6,0.471,735.2,01.18,0.508
2014-08-02 01:45:00,1708E-3,5C000000,-0724,0829,12271,031.9,045.6,0.471,735.2,01.18,0.508
2014-08-02 01:46:00,1985E-3,5C000000,-0724,0829,12313,031.9,045.6,0.471,735.2,01.18,0.508
2014-08-02 01:47:00,1919E-3,5C000000,-0724,0830,12238,031.9,045.6,0.471,735.2,01.18,0.508
2014-08-02 01:48:00,1806E-3,5C000000,-0724,0829,12179,031.9,045.6,0.471,735.2,01.18,0.508
2014-08-02 01:49:00,1943E-3,5C000000,-0724,0830,12280,031.9,045.6,0.472,735.2,01.18,0.508
2014-08-02 01:50:00,1900E-3,5C000000,-0724,0830,12370,031.9,045.6,0.472,735.2,01.18,0.508
2014-08-02 01:51:00,1905E-3,5C000000,-0724,0830,12278,031.9,045.6,0.472,735.2,01.18,0.508
2014-08-02 01:52:00,1835E-3,5C000000,-0724,0829,12341,031.9,045.6,0.472,735.2,01.18,0.508
2014-08-02 01:53:00,1887E-3,5C000000,-0724,0830,12013,031.9,045.6,0.472,735.2,01.18,0.508
2014-08-02 01:54:00,1978E-3,5C000000,-0724,0829,12220,031.9,045.6,0.472,735.2,01.18,0.508
2014-08-02 01:55:00,1789E-3,5C000000,-0724,0829,12346,031.9,045.6,0.472,735.2,01.18,0.508
2014-08-02 01:56:00,1814E-3,5C000000,-0724,0829,12306,031.9,045.6,0.472,735.2,01.18,0.508
2014-08-02 01:57:00,1845E-3,5C000000,-0724,0829,12210,031.8,045.6,0.472,735.2,01.18,0.508
2014-08-02 01:58:00,1773E-3,5C000000,-0724,0830,12128,031.9,045.6,0.472,735.2,01.18,0.508
2014-08-02 01:59:00,1809E-3,5C000000,-0724,0829,12208,031.8,045.6,0.472,735.2,01.18,0.508
2014-08-02 02:00:00,1810E-3,5C000000,-0724,0829,12253,031.9,045.6,0.472,735.1,01.18,0.508
2014-08-02 02:01:00,1889E-3,5C000000,-0724,0830,12278,031.8,045.6,0.472,735.2,01.18,0.508
2014-08-02 02:02:00,1767E-3,5C000000,-0724,0829,12242,031.9,045.6,0.472,735.2,01.18,0.508
2014-08-02 02:03:00,1823E-3,5C000000,-0724,0829,12275,031.8,045.6,0.472,735.2,01.18,0.508
2014-08-02 02:04:00,1908E-3,5C000000,-0724,0830,11984,031.9,045.6,0.472,735.2,01.18,0.508
2014-08-02 02:05:00,1845E-3,5C000000,-0724,0829,12002,031.9,045.6,0.471,735.3,01.18,0.508
2014-08-02 02:06:00,1833E-3,5C000000,-0724,0830,12185,031.9,045.6,0.471,735.3,01.18,0.508
2014-08-02 02:07:00,1909E-3,5C000000,-0724,0829,12128,031.8,045.6,0.472,735.3,01.18,0.508
2014-08-02 02:08:00,1827E-3,5C000000,-0724,0830,12262,031.8,045.6,0.471,735.3,01.18,0.508
2014-08-02 02:09:00,1756E-3,5C000000,-0724,0830,12351,031.9,045.6,0.471,735.3,01.18,0.508
2014-08-02 02:10:00,1869E-3,5C000000,-0724,0830,12371,031.8,045.6,0.471,735.3,01.18,0.508
2014-08-02 02:11:00,1726E-3,5C000000,-0724,0829,11975,031.8,045.6,0.472,735.2,01.18,0.508
2014-08-02 02:12:00,1841E-3,5C000000,-0724,0830,12246,031.8,045.6,0.472,735.2,01.18,0.508
2014-08-02 02:13:00,1743E-3,5C000000,-0724,0830,12291,031.8,045.6,0.472,735.1,01.18,0.508
2014-08-02 02:14:00,1929E-3,5C000000,-0724,0830,12320,031.8,045.6,0.472,735.1,01.18,0.508
2014-08-02 02:15:00,1765E-3,5C000000,-0724,0830,12207,031.8,045.6,0.472,735.1,01.18,0.508
2014-08-02 02:16:00,1885E-3,5C000000,-0724,0829,12142,031.8,045.6,0.472,735.1,01.18,0.508
2014-08-02 02:17:00,1758E-3,5C000000,-0724,0831,12185,031.8,045.6,0.472,735.1,01.18,0.508
2014-08-02 02:18:00,1800E-3,5C000000,-0724,0829,12096,031.8,045.6,0.472,735.1,01.18,0.508
2014-08-02 02:19:00,1891E-3,5C000000,-0724,0831,12107,031.8,045.6,0.472,735.1,01.18,0.508
2014-08-02 02:20:00,1860E-3,5C000000,-0724,0830,12049,031.8,045.6,0.472,735.1,01.18,0.508
2014-08-02 02:21:00,1767E-3,5C000000,-0724,0830,12205,031.8,045.6,0.472,735.1,01.18,0.508
2014-08-02 02:22:00,1921E-3,5C000000,-0724,0830,12258,031.8,045.6,0.472,735.1,01.18,0.508
2014-08-02 02:23:00,1868E-3,5C000000,-0724,0829,12258,031.8,045.6,0.472,735.2,01.18,0.508
2014-08-02 02:24:00,1829E-3,5C000000,-0724,0829,12270,031.8,045.6,0.472,735.1,01.18,0.508
2014-08-02 02:25:00,1821E-3,5C000000,-0724,0830,12048,031.8,045.6,0.471,735.1,01.18,0.508
2014-08-02 02:26:00,1831E-3,5C000000,-0724,0829,12221,031.8,045.6,0.471,735.1,01.18,0.508
2014-08-02 02:27:00,1849E-3,5C000000,-0724,0830,12338,031.8,045.6,0.471,735.1,01.18,0.508
2014-08-02 02:28:00,1749E-3,5C000000,-0724,0828,12207,031.8,045.6,0.472,735.1,01.18,0.508
2014-08-02 02:29:00,1806E-3,5C000000,-0724,0829,12265,031.8,045.6,0.472,735.1,01.18,0.508
2014-08-02 02:30:00,1776E-3,5C000000,-0724,0830,12196,031.8,045.6,0.472,735.0,01.18,0.508
2014-08-02 02:31:00,1895E-3,5C000000,-0724,0830,12220,031.8,045.6,0.472,735.0,01.18,0.508
2014-08-02 02:32:00,1881E-3,5C000000,-0724,0829,11972,031.8,045.6,0.472,735.0,01.18,0.508
2014-08-02 02:33:00,1872E-3,5C000000,-0724,0829,12044,031.8,045.6,0.472,735.0,01.18,0.508
2014-08-02 02:34:00,1962E-3,5C000000,-0724,0829,12130,031.8,045.6,0.472,735.0,01.18,0.508
2014-08-02 02:35:00,1791E-3,5C000000,-0724,0829,12334,031.8,045.6,0.472,735.0,01.18,0.508
2014-08-02 02:36:00,1968E-3,5C000000,-0724,0829,12198,031.8,045.6,0.472,735.0,01.18,0.508
2014-08-02 02:37:00,1832E-3,5C000000,-0724,0830,12206,031.8,045.6,0.472,735.1,01.18,0.508
2014-08-02 02:38:00,1732E-3,5C000000,-0724,0830,12281,031.8,045.6,0.471,735.0,01.18,0.508
2014-08-02 02:39:00,1944E-3,5C000000,-0724,0830,12167,031.8,045.6,0.471,735.1,01.18,0.508
2014-08-02 02:40:00,1964E-3,5C000000,-0724,0830,12331,031.8,045.6,0.471,735.1,01.18,0.508
2014-08-02 02:41:00,1886E-3,5C000000,-0724,0830,12281,031.8,045.6,0.472,735.1,01.18,0.508
2014-08-02 02:42:00,1828E-3,5C000000,-0724,0830,12093,031.8,045.6,0.472,735.1,01.18,0.508
2014-08-02 02:43:00,1867E-3,5C000000,-0724,0829,12218,031.8,045.6,0.472,735.1,01.18,0.508
2014-08-02 02:44:00,1895E-3,5C000000,-0724,0830,12117,031.8,045.6,0.472,735.1,01.18,0.508
2014-08-02 02:45:00,1900E-3,5C000000,-0724,0830,12339,031.8,045.6,0.472,735.1,01.18,0.508
2014-08-02 02:46:00,1889E-3,5C000000,-0724,0830,12184,031.8,045.6,0.472,735.0,01.18,0.508
2014-08-02 02:47:00,1842E-3,5C000000,-0724,0830,12145,031.8,045.6,0.472,735.0,01.18,0.508
2014-08-02 02:48:00,1943E-3,5C000000,-0724,0830,12291,031.8,045.6,0.472,735.0,01.18,0.508
2014-08-02 02:49:00,1805E-3,5C000000,-0724,0830,12107,031.8,045.6,0.472,735.0,01.18,0.508
2014-08-02 02:50:00,1822E-3,5C000000,-0724,0830,12275,031.8,045.6,0.472,735.0,01.18,0.508
2014-08-02 02:51:00,1819E-3,5C000000,-0724,0830,12138,031.8,045.6,0.471,735.0,01.18,0.508
2014-08-02 02:52:00,1877E-3,5C000000,-0724,0831,12214,031.8,045.6,0.471,734.9,01.18,0.508
2014-08-02 02:53:00,1885E-3,5C000000,-0724,0830,12105,031.8,045.6,0.471,734.9,01.18,0.508
2014-08-02 02:54:00,1708E-3,5C000000,-0724,0829,12235,031.8,045.6,0.472,734.9,01.18,0.508
2014-08-02 02:55:00,1761E-3,5C000000,-0724,0829,12160,031.8,045.6,0.472,735.0,01.18,0.508
2014-08-02 02:56:00,1910E-3,5C000000,-0724,0829,12296,031.8,045.6,0.472,735.0,01.18,0.508
2014-08-02 02:57:00,1932E-3,5C000000,-0724,0830,12198,031.8,045.6,0.472,735.0,01.18,0.508
2014-08-02 02:58:00,1809E-3,5C000000,-0724,0830,12178,031.8,045.6,0.472,735.0,01.18,0.508
2014-08-02 02:59:00,1859E-3,5C000000,-0724,0829,12211,031.8,045.6,0.472,735.0,01.18,0.508
2014-08-02 03:00:00,1771E-3,5C000000,-0724,0829,12193,031.8,045.6,0.472,735.0,01.18,0.508
2014-08-02 03:01:00,1766E-3,5C000000,-0724,0830,12335,031.8,045.6,0.472,735.0,01.18,0.508
2014-08-02 03:02:00,1939E-3,5C000000,-0724,0830,12399,031.8,045.6,0.472,735.0,01.18,0.508
2014-08-02 03:03:00,1784E-3,5C000000,-0724,0830,12205,031.8,045.6,0.472,735.0,01.18,0.508
2014-08-02 03:04:00,1940E-3,5C000000,-0724,0829,12274,031.8,045.6,0.472,735.0,01.18,0.508
2014-08-02 03:05:00,1812E-3,5C000000,-0724,0830,12109,031.8,045.6,0.472,735.0,01.18,0.508
2014-08-02 03:06:00,1940E-3,5C000000,-0724,0829,12075,031.8,045.6,0.472,735.0,01.18,0.508
2014-08-02 03:07:00,1653E-3,5C000000,-0724,0829,12235,031.8,045.6,0.472,735.0,01.18,0.508
2014-08-02 03:08:00,1924E-3,5C000000,-0724,0830,12179,031.8,045.6,0.472,735.0,01.18,0.508
2014-08-02 03:09:00,1844E-3,5C000000,-0724,0830,12206,031.8,045.6,0.472,735.0,01.18,0.508
2014-08-02 03:10:00,1853E-3,5C000000,-0724,0830,12192,031.8,045.6,0.472,735.0,01.18,0.508
2014-08-02 03:11:00,1839E-3,5C000000,-0724,0829,12188,031.8,045.6,0.472,735.0,01.18,0.508
2014-08-02 03:12:00,1924E-3,5C000000,-0724,0830,12082,031.8,045.6,0.472,735.0,01.18,0.508
2014-08-02 03:13:00,1952E-3,5C000000,-0724,0830,12008,031.8,045.6,0.472,735.0,01.18,0.508
2014-08-02 03:14:00,1832E-3,5C000000,-0724,0830,12238,031.8,045.6,0.471,735.0,01.18,0.508
2014-08-02 03:15:00,1841E-3,5C000000,-0724,0830,12353,031.8,045.6,0.471,735.0,01.18,0.508
2014-08-02 03:16:00,1888E-3,5C000000,-0724,0831,12296,031.8,045.6,0.472,735.0,01.18,0.508
2014-08-02 03:17:00,1823E-3,5C000000,-0724,0830,12388,031.8,045.6,0.472,735.0,01.18,0.508
2014-08-02 03:18:00,1908E-3,5C000000,-0724,0830,11987,031.8,045.6,0.472,735.0,01.18,0.508
2014-08-02 03:19:00,1927E-3,5C000000,-0724,0829,12129,031.8,045.6,0.472,734.9,01.18,0.508
2014-08-02 03:20:00,1907E-3,5C000000,-0724,0829,12209,031.8,045.6,0.472,734.9,01.18,0.508
2014-08-02 03:21:00,1887E-3,5C000000,-0724,0830,12219,031.8,045.6,0.472,734.9,01.18,0.508
2014-08-02 03:22:00,1898E-3,5C000000,-0724,0829,12228,031.8,045.6,0.472,734.9,01.18,0.508
2014-08-02 03:23:00,1986E-3,5C000000,-0724,0830,12379,031.8,045.6,0.472,734.9,01.18,0.508
2014-08-02 03:24:00,1858E-3,5C000000,-0724,0830,12269,031.8,045.6,0.471,734.9,01.18,0.508
2014-08-02 03:25:00,1912E-3,5C000000,-0724,0830,12170,031.8,045.6,0.471,734.9,01.18,0.508
2014-08-02 03:26:00,1815E-3,5C000000,-0724,0830,12172,031.8,045.6,0.472,734.9,01.18,0.508
2014-08-02 03:27:00,1888E-3,5C000000,-0724,0830,12233,031.8,045.6,0.471,734.9,01.18,0.508
2014-08-02 03:28:00,1798E-3,5C000000,-0724,0831,12307,031.8,045.6,0.471,735.0,01.18,0.508
2014-08-02 03:29:00,1853E-3,5C000000,-0724,0830,12203,031.8,045.6,0.472,735.0,01.18,0.508
2014-08-02 03:30:00,1802E-3,5C000000,-0724,0830,12174,031.8,045.6,0.472,734.9,01.18,0.508
2014-08-02 03:31:00,1796E-3,5C000000,-0724,0830,12075,031.8,045.6,0.472,735.0,01.18,0.508
2014-08-02 03:32:00,1899E-3,5C000000,-0724,0830,12053,031.8,045.6,0.472,734.9,01.18,0.508
2014-08-02 03:33:00,1890E-3,5C000000,-0724,0830,11931,031.8,045.6,0.472,734.9,01.18,0.508
2014-08-02 03:34:00,1829E-3,5C000000,-0724,0829,12192,031.8,045.6,0.472,734.9,01.18,0.508
2014-08-02 03:35:00,1909E-3,5C000000,-0724,0830,12142,031.8,045.6,0.471,734.9,01.18,0.508
2014-08-02 03:36:00,1806E-3,5C000000,-0724,0830,12325,031.8,045.6,0.471,734.9,01.18,0.508
2014-08-02 03:37:00,1819E-3,5C000000,-0724,0829,12295,031.8,045.6,0.472,734.9,01.18,0.508
2014-08-02 03:38:00,1786E-3,5C000000,-0724,0829,12130,031.8,045.6,0.472,735.0,01.18,0.508
2014-08-02 03:39:00,1722E-3,5C000000,-0724,0830,12226,031.8,045.6,0.472,734.9,01.18,0.508
2014-08-02 03:40:00,1819E-3,5C000000,-0724,0830,12228,031.8,045.6,0.472,734.9,01.18,0.508
2014-08-02 03:41:00,1877E-3,5C000000,-0724,0830,12206,031.8,045.6,0.472,734.9,01.18,0.508
2014-08-02 03:42:00,1913E-3,5C000000,-0724,0830,12086,031.8,045.6,0.472,734.9,01.18,0.508
2014-08-02 03:43:00,1707E-3,5C000000,-0724,0830,12239,031.8,045.6,0.471,734.9,01.18,0.508
2014-08-02 03:44:00,1913E-3,5C000000,-0724,0829,12344,031.8,045.6,0.471,734.9,01.18,0.508
2014-08-02 03:45:00,1992E-3,5C000000,-0724,0829,12204,031.8,045.6,0.472,734.9,01.18,0.508
2014-08-02 03:46:00,1867E-3,5C000000,-0724,0830,12180,031.8,045.6,0.472,734.9,01.18,0.508
2014-08-02 03:47:00,1885E-3,5C000000,-0724,0829,12197,031.8,045.6,0.472,734.9,01.18,0.508
2014-08-02 03:48:00,1910E-3,5C000000,-0724,0830,12133,031.8,045.6,0.472,734.9,01.18,0.508
2014-08-02 03:49:00,1871E-3,5C000000,-0724,0829,12267,031.8,045.6,0.472,734.9,01.18,0.508
2014-08-02 03:50:00,1780E-3,5C000000,-0724,0830,12235,031.8,045.6,0.472,734.9,01.18,0.508
2014-08-02 03:51:00,1766E-3,5C000000,-0724,0831,12167,031.8,045.6,0.471,734.9,01.18,0.508
2014-08-02 03:52:00,1794E-3,5C000000,-0724,0829,12276,031.8,045.6,0.471,734.9,01.18,0.508
2014-08-02 03:53:00,1816E-3,5C000000,-0724,0829,12032,031.8,045.6,0.471,734.9,01.18,0.508
2014-08-02 03:54:00,1855E-3,5C000000,-0724,0830,12164,031.8,045.6,0.472,734.9,01.18,0.508
2014-08-02 03:55:00,1833E-3,5C000000,-0724,0830,12191,031.8,045.6,0.472,734.9,01.18,0.508
2014-08-02 03:56:00,1883E-3,5C000000,-0724,0830,12276,031.8,045.6,0.472,734.9,01.18,0.508
2014-08-02 03:57:00,1916E-3,5C000000,-0724,0830,12207,031.8,045.6,0.472,734.9,01.18,0.508
2014-08-02 03:58:00,1684E-3,5C000000,-0724,0829,12247,031.8,045.6,0.472,734.9,01.18,0.508
2014-08-02 03:59:00,1767E-3,5C000000,-0724,0830,12139,031.8,045.6,0.471,734.9,01.18,0.508
2014-08-02 04:00:00,1772E-3,5C000000,-0724,0829,12238,031.8,045.6,0.471,734.9,01.18,0.508
2014-08-02 04:01:00,1990E-3,5C000000,-0724,0830,12106,031.8,045.6,0.471,734.9,01.18,0.508
2014-08-02 04:02:00,1870E-3,5C000000,-0724,0830,12283,031.8,045.6,0.472,734.9,01.18,0.508
2014-08-02 04:03:00,1763E-3,5C000000,-0724,0830,12238,031.8,045.6,0.472,734.9,01.18,0.508
2014-08-02 04:04:00,1850E-3,5C000000,-0724,0830,12242,031.8,045.6,0.472,734.9,01.18,0.508
2014-08-02 04:05:00,1822E-3,5C000000,-0724,0829,12276,031.8,045.6,0.472,734.9,01.18,0.508
2014-08-02 04:06:00,1802E-3,5C000000,-0724,0830,12250,031.8,045.6,0.472,734.9,01.18,0.508
2014-08-02 04:07:00,1784E-3,5C000000,-0724,0829,12193,031.8,045.6,0.472,734.8,01.18,0.508
2014-08-02 04:08:00,1772E-3,5C000000,-0724,0830,12268,031.8,045.6,0.471,734.9,01.18,0.508
2014-08-02 04:09:00,1745E-3,5C000000,-0724,0830,12221,031.8,045.6,0.471,734.9,01.18,0.508
2014-08-02 04:10:00,1814E-3,5C000000,-0724,0831,12094,031.8,045.6,0.471,734.8,01.18,0.508
2014-08-02 04:11:00,1694E-3,5C000000,-0724,0830,12334,031.8,045.6,0.472,734.8,01.18,0.508
2014-08-02 04:12:00,1768E-3,5C000000,-0724,0830,12239,031.7,045.6,0.472,734.8,01.18,0.508
2014-08-02 04:13:00,1774E-3,5C000000,-0724,0830,12224,031.8,045.6,0.472,734.8,01.18,0.508
2014-08-02 04:14:00,1846E-3,5C000000,-0724,0830,12322,031.8,045.6,0.472,734.8,01.18,0.508
2014-08-02 04:15:00,1787E-3,5C000000,-0724,0830,12223,031.8,045.6,0.472,734.8,01.18,0.508
2014-08-02 04:16:00,1898E-3,5C000000,-0724,0829,12265,031.7,045.6,0.471,734.8,01.18,0.508
2014-08-02 04:17:00,1790E-3,5C000000,-0724,0829,12289,031.8,045.6,0.471,734.8,01.18,0.508
2014-08-02 04:18:00,1791E-3,5C000000,-0724,0830,12138,031.8,045.6,0.471,734.8,01.18,0.508
2014-08-02 04:19:00,1873E-3,5C000000,-0724,0830,12116,031.8,045.6,0.472,734.8,01.18,0.508
2014-08-02 04:20:00,1810E-3,5C000000,-0724,0830,12152,031.8,045.6,0.472,734.7,01.18,0.508